Klamath Falls, OR

11:58 PM PDT on August 26, 2016 (GMT -0700)
Klamath Falls International

Weather History for KLMT - March, 2014

Change the Weather History Date:

Saturday, March 15, 2014

  Actual Average Record
Temperature  
Mean Temperature 44 °F 38 °F  
Max Temperature 66 °F 51 °F 67 °F (2007)
Min Temperature 22 °F 26 °F 18 °F (1959)
Degree Days  
Heating Degree Days 21 27  
Month to date heating degree days 321 410  
Since 1 July heating degree days 5104 5251  
Cooling Degree Days 0 0  
Month to date cooling degree days 0 0  
Year to date cooling degree days 0 0  
Moisture  
Dew Point 26 °F    
Average Humidity 57    
Maximum Humidity 96    
Minimum Humidity 20    
Precipitation  
Precipitation 0.00 in 0.04 in 0.57 in (2011)
Month to date precipitation 1.35 0.57  
Year to date precipitation 4.00 4.34  
Sea Level Pressure  
Sea Level Pressure 30.38 in    
Wind  
Wind Speed 4 mph (South)    
Max Wind Speed 17 mph    
Max Gust Speed 21 mph    
Visibility 10 miles    
Events      
T = Trace of Precipitation, MM = Missing Value Source: NWS Daily Summary

Daily Weather History Graph

Daily Weather History Graph

Search for Another Location

Airport or City:

Trip Planner

Search our weather history database for the weather conditions in past years. The results will help you decide how hot, cold, wet, or windy it might be!

Date:

Astronomy

Mar. 15, 2014 Rise Set
Actual Time 7:18 AM PDT 7:13 PM PDT
Civil Twilight 6:50 AM PDT 7:41 PM PDT
Nautical Twilight 6:18 AM PDT 8:14 PM PDT
Astronomical Twilight 5:45 AM PDT 8:47 PM PDT
Moon 6:37 PM PDT (3/15) 6:33 AM PDT (3/15)
Length of Visible Light 12h 50m
Length of Day
11h 54m
Waxing Gibbous, 99% of the Moon is Illuminated
Mar 15
Waxing Gibbous
Mar 16
Full
Mar 23
Last Quarter
Mar 30
New
Apr 7
First Quarter

Hourly Weather History & Observations

Time (PDT) Temp. Windchill Dew Point Humidity Pressure Visibility Wind Dir Wind Speed Gust Speed Precip Events Conditions
12:53 AM 35.1 °F - 28.0 °F 76% 30.35 in 10.0 mi Calm Calm - N/A   Clear
1:53 AM 28.9 °F 25.2 °F 25.0 °F 85% 30.38 in 10.0 mi WSW 3.5 mph - N/A   Clear
2:53 AM 25.0 °F - 21.9 °F 88% 30.40 in 10.0 mi Calm Calm - N/A   Clear
3:53 AM 27.0 °F 21.6 °F 24.1 °F 89% 30.37 in 10.0 mi NE 4.6 mph - N/A   Clear
4:53 AM 27.0 °F - 24.1 °F 89% 30.38 in 10.0 mi Calm Calm - N/A   Clear
5:53 AM 23.0 °F - 21.0 °F 92% 30.41 in 10.0 mi Calm Calm - N/A   Clear
6:53 AM 25.0 °F 18.1 °F 21.9 °F 88% 30.42 in 10.0 mi ENE 5.8 mph - N/A   Clear
7:53 AM 28.0 °F - 24.1 °F 85% 30.44 in 10.0 mi Calm Calm - N/A   Partly Cloudy
8:53 AM 37.0 °F 31.6 °F 30.0 °F 76% 30.43 in 10.0 mi ESE 6.9 mph - N/A   Clear
9:53 AM 42.1 °F 39.2 °F 28.9 °F 60% 30.44 in 10.0 mi ESE 4.6 mph - N/A   Clear
10:53 AM 46.9 °F - 32.0 °F 56% 30.44 in 10.0 mi Calm Calm - N/A   Clear
11:53 AM 53.1 °F - 28.9 °F 40% 30.41 in 10.0 mi Variable 3.5 mph - N/A   Clear
12:53 PM 59.0 °F - 23.0 °F 25% 30.37 in 10.0 mi SSE 11.5 mph - N/A   Clear
1:53 PM 62.1 °F - 21.0 °F 21% 30.35 in 10.0 mi SE 5.8 mph - N/A   Clear
2:53 PM 64.0 °F - 24.1 °F 22% 30.35 in 10.0 mi SSW 4.6 mph - N/A   Clear
3:53 PM 66.0 °F - 25.0 °F 21% 30.33 in 10.0 mi SW 6.9 mph - N/A   Clear
4:53 PM 66.0 °F - 24.1 °F 20% 30.31 in 10.0 mi Variable 5.8 mph - N/A   Clear
5:53 PM 64.9 °F - 24.1 °F 21% 30.32 in 10.0 mi WNW 15.0 mph - N/A   Clear
6:53 PM 57.0 °F - 27.0 °F 32% 30.34 in 10.0 mi West 8.1 mph - N/A   Clear
7:53 PM 55.0 °F - 27.0 °F 34% 30.34 in 10.0 mi SSW 5.8 mph - N/A   Clear
8:53 PM 48.0 °F - 28.0 °F 46% 30.35 in 10.0 mi South 3.5 mph - N/A   Clear
9:53 PM 48.0 °F - 30.0 °F 50% 30.35 in 10.0 mi SSW 5.8 mph - N/A   Clear
10:53 PM 39.9 °F 37.8 °F 30.9 °F 70% 30.37 in 10.0 mi SE 3.5 mph - N/A   Clear
11:53 PM 35.1 °F - 28.9 °F 78% 30.37 in 10.0 mi Calm Calm - N/A   Clear